Theta_e
340 340 340 340 341 342 342 341 342 342 343 345 346 347 346 346 348 350 349 348 347 345 345 345 345 345 344 344 344 344 344 344 344 345 347 342 332 327 327 325 324 323 321 321 321 320 320 320 320 322 322 323 323 324 325 328 331 333 336 338 340 341 342 342 343 342 342 342 343 344 345 345 344 344 344 345 346 347 346 346 347 346 345 345 345
345 344 345 344 344 346 346 346 346 346 346 346 347 349 349 349 350 350 349 346 345 345 345 345 344 344 345 345 345 345 345 346 346 345 347 347 337 324 324 324 322 322 321 320 320 320 320 321 322 323 324 324 326 329 332 334 337 338 339 340 340 341 341 341 341 341 342 343 344 345 345 344 341 338 338 338 338 338 340 343 343 342 341 340 341
348 346 347 348 348 348 348 348 349 348 348 349 349 350 350 351 351 350 349 346 345 345 344 345 344 344 344 345 346 346 347 346 346 347 346 349 343 326 320 323 322 320 320 320 320 321 322 323 324 324 326 329 333 335 337 338 338 339 339 340 340 340 341 341 341 342 343 345 345 344 342 338 333 330 329 329 328 328 332 336 336 334 332 329 329
349 349 349 350 350 349 349 349 349 349 349 350 350 350 350 348 348 349 349 347 345 346 345 344 344 345 344 344 346 346 346 345 344 345 346 348 349 340 326 320 320 320 320 320 321 323 324 324 326 328 332 334 337 338 338 339 339 339 338 338 339 339 339 340 342 343 345 345 343 338 334 330 327 325 325 325 324 323 324 326 325 324 323 322 322
344 349 350 349 350 350 349 349 350 349 348 348 350 351 349 348 347 348 349 348 346 346 346 344 344 346 345 344 346 345 343 344 344 344 347 348 349 349 339 324 320 320 321 322 323 324 325 328 330 333 336 337 339 339 338 338 337 336 336 336 337 338 339 341 343 345 345 344 339 332 329 327 326 326 325 324 323 323 323 322 322 322 322 322 322
340 347 350 349 349 349 349 349 348 345 345 347 350 350 349 349 349 349 349 348 347 346 346 345 345 346 346 345 345 345 344 344 344 343 346 347 345 348 346 339 334 326 323 325 324 327 329 330 334 335 337 338 337 337 336 335 334 334 334 335 337 339 341 342 344 345 345 342 336 332 331 330 329 329 327 325 325 325 325 325 325 324 324 324 324
339 345 350 349 348 350 349 347 346 347 348 349 350 349 350 350 350 350 349 349 347 347 347 346 345 344 346 346 344 345 344 343 344 342 343 344 344 346 347 349 348 343 342 336 328 330 332 332 334 335 335 335 335 335 334 333 333 334 335 336 339 340 342 343 343 343 343 341 337 335 335 335 334 333 332 331 331 331 331 330 330 329 329 330 331
341 344 350 350 348 350 348 345 347 350 349 349 349 349 349 348 349 350 349 349 349 348 348 347 347 345 345 345 344 345 344 343 345 344 343 342 342 345 347 347 346 347 352 349 338 333 332 333 334 332 333 333 333 332 332 332 333 335 337 338 339 340 339 339 339 340 340 340 338 337 337 338 338 338 337 337 337 337 338 338 337 336 337 338 338
341 344 349 350 348 349 348 348 349 349 349 350 349 349 348 347 347 349 349 349 348 349 349 348 347 346 345 344 342 343 344 345 345 342 343 344 343 345 346 343 344 347 351 352 349 342 335 336 338 333 329 330 331 329 330 332 334 336 336 336 335 334 333 333 334 335 335 335 335 336 337 338 338 337 338 338 339 340 340 340 340 340 339 339 339
341 343 349 350 350 350 349 350 347 346 349 350 348 349 351 349 347 346 348 349 349 349 349 348 347 345 343 342 342 342 342 343 344 343 342 344 346 346 345 345 348 350 350 350 350 350 346 346 349 343 329 326 328 328 329 331 332 333 331 330 330 330 331 332 333 334 333 332 332 332 333 334 334 334 335 336 337 338 337 337 337 336 336 336 338
341 343 349 351 351 350 348 346 345 346 349 349 348 349 350 352 351 348 347 348 349 349 347 346 345 343 342 340 342 344 342 343 345 345 342 342 346 345 343 346 348 347 349 349 347 349 350 351 354 351 338 330 328 327 327 328 327 327 328 330 332 333 334 335 335 335 335 334 333 332 333 333 334 333 334 334 334 334 333 332 332 333 333 334 335
341 341 348 352 352 351 347 343 345 348 350 350 350 350 349 352 352 351 351 351 350 347 345 344 342 341 341 341 343 342 344 345 344 344 342 342 346 346 343 345 348 348 347 349 347 345 348 352 354 354 350 344 338 331 327 326 325 327 331 334 335 335 336 336 337 337 337 337 337 337 337 337 337 336 335 334 334 332 332 332 333 334 334 334 333
342 341 343 349 353 351 347 345 346 347 350 351 350 349 349 351 352 351 353 353 349 345 344 343 341 341 342 342 343 342 343 346 343 343 343 342 343 345 345 345 346 346 345 347 348 344 345 351 351 350 353 353 350 341 330 326 327 328 333 335 335 335 335 335 335 336 338 339 341 342 342 341 341 340 338 337 335 334 334 335 337 338 337 337 336
343 342 341 345 349 349 345 346 346 346 348 349 348 347 349 353 354 352 353 350 347 345 344 345 342 340 342 342 343 343 343 345 343 342 342 342 342 342 344 344 344 344 345 348 348 344 343 346 347 349 353 353 354 352 338 329 328 329 332 334 335 335 334 334 334 335 337 339 342 344 344 345 344 343 343 340 338 337 337 338 340 340 340 340 340
342 343 343 344 346 347 346 344 344 344 345 346 346 347 351 355 354 353 352 347 344 345 345 346 344 340 342 343 342 343 343 342 342 342 342 342 341 342 343 342 343 344 345 345 344 343 342 342 345 349 353 352 354 355 346 333 331 333 334 335 335 334 333 333 334 335 336 338 340 342 344 345 345 345 346 344 342 339 338 340 342 343 342 342 342
346 347 348 345 345 350 349 342 342 344 343 344 346 349 352 353 352 352 352 348 344 346 346 347 346 345 344 343 342 342 341 340 340 341 340 342 341 341 342 340 342 345 344 343 344 343 340 340 340 341 348 352 352 354 350 340 335 334 335 335 333 333 332 333 334 335 336 337 338 340 340 341 342 344 346 347 345 342 339 339 342 344 345 345 345
350 352 350 344 344 350 350 344 342 343 344 346 349 352 352 351 351 352 354 352 346 345 347 348 348 349 347 346 345 344 343 340 341 342 340 340 341 340 342 342 342 343 340 340 343 343 340 341 341 339 345 347 346 350 351 348 345 338 335 335 333 333 332 331 333 333 335 336 338 339 338 335 334 336 340 343 344 344 341 339 341 343 345 347 348
352 355 352 345 343 345 346 346 345 345 347 348 349 351 351 352 353 354 354 352 348 346 345 347 348 348 348 348 348 348 348 343 341 344 342 340 339 338 342 343 341 341 340 340 342 342 340 340 342 342 343 341 342 348 348 347 350 345 340 339 337 335 333 331 332 332 334 335 337 339 339 335 330 328 331 334 336 338 338 338 339 341 343 346 349
353 355 353 346 342 343 345 348 349 348 346 346 349 351 351 353 354 353 352 350 349 349 346 345 347 347 347 348 348 349 350 348 344 343 341 342 341 339 340 340 341 342 343 342 341 340 340 340 342 340 337 339 343 347 346 344 347 347 345 343 341 338 336 334 334 334 334 334 336 338 339 339 332 326 325 327 329 331 332 333 335 337 339 343 347
351 352 351 346 342 343 346 350 353 352 347 348 351 352 350 350 349 348 348 348 349 351 349 347 346 347 349 349 348 348 348 349 349 346 343 342 341 342 341 339 341 341 341 343 341 340 340 341 341 339 338 341 340 343 346 344 347 350 350 347 345 343 342 340 339 338 337 336 336 337 338 340 337 330 325 326 327 327 328 330 332 334 336 339 342
348 348 348 346 343 343 344 347 351 351 350 352 352 349 347 346 346 347 347 349 350 350 350 350 349 349 351 351 351 350 348 347 348 347 347 344 342 342 342 341 342 341 341 343 342 342 341 340 341 342 343 344 339 340 343 339 342 349 349 347 346 346 345 345 344 342 341 340 338 336 336 337 339 335 329 328 328 327 327 328 329 332 334 336 339
346 346 345 345 344 345 347 346 350 352 352 355 353 348 346 346 346 346 346 347 350 350 351 352 351 350 351 350 351 350 349 350 348 347 347 347 345 342 341 343 342 341 342 343 341 343 343 342 344 343 342 344 342 342 343 340 339 343 347 348 345 345 346 346 346 345 344 343 341 338 336 335 337 337 334 332 332 331 330 329 330 331 333 335 337
349 347 345 347 345 346 351 351 352 352 349 351 354 351 350 351 347 344 345 345 348 351 352 353 350 349 349 347 348 349 349 351 350 347 348 348 348 346 343 343 343 342 343 342 340 342 344 343 345 343 341 344 344 341 343 342 338 341 348 350 345 344 346 345 345 345 345 345 343 340 337 335 334 335 336 336 336 336 336 335 335 334 334 335 336
352 350 349 351 347 345 352 354 352 352 350 348 353 354 355 355 349 344 347 345 345 348 351 353 352 349 350 347 346 348 347 349 349 347 347 347 347 348 345 344 346 346 344 343 342 343 345 344 344 344 341 342 344 343 342 341 341 344 350 350 346 345 346 346 346 344 344 344 343 340 338 336 334 333 335 337 338 340 341 342 341 339 338 336 337
352 352 352 353 349 345 349 351 348 350 350 347 349 351 354 357 350 344 347 346 345 346 348 353 354 351 352 350 348 348 347 348 347 346 348 347 346 349 349 346 345 346 346 345 343 342 345 345 344 344 342 342 346 345 341 340 343 346 349 349 346 346 349 348 345 343 342 341 340 339 337 336 335 333 333 336 339 342 343 344 345 343 341 339 338
353 353 353 353 352 349 346 346 344 343 345 344 344 344 347 354 352 348 352 351 344 345 349 354 354 352 353 352 350 349 348 348 347 346 348 349 349 351 352 350 346 345 346 346 345 344 344 345 344 345 347 346 347 344 339 340 343 341 345 349 347 349 351 346 343 341 339 338 337 336 336 335 335 333 331 332 336 340 343 345 345 344 342 340 337
355 354 353 352 353 352 347 345 344 341 342 341 343 343 341 347 350 349 354 354 345 343 350 354 353 352 352 350 350 350 348 349 348 348 349 350 351 352 352 352 351 348 346 346 347 345 343 343 344 346 347 347 346 344 341 342 343 341 345 349 349 352 352 349 348 342 338 337 336 334 334 334 333 332 331 331 332 335 338 341 344 344 343 340 337
355 353 351 350 351 350 347 346 343 341 343 341 342 346 342 342 346 346 350 356 353 345 347 352 353 352 350 348 349 349 348 349 348 349 351 351 352 351 351 352 353 352 349 348 348 346 343 344 346 346 345 346 349 348 344 344 346 347 348 349 348 349 351 352 349 342 339 338 336 334 333 333 332 332 331 330 329 330 332 335 339 341 342 340 338
354 352 349 348 346 346 347 349 345 341 343 342 341 344 343 342 345 343 346 356 357 349 348 353 354 353 351 350 350 348 348 349 348 348 349 351 351 351 351 352 353 353 353 352 351 348 346 344 344 345 345 347 349 349 347 346 348 349 349 349 348 348 348 348 345 343 344 342 337 335 332 331 331 331 330 329 328 329 329 331 333 336 338 337 336
354 354 352 348 343 341 344 349 347 342 343 344 342 341 341 345 348 345 345 350 351 347 346 350 353 354 353 352 351 350 350 349 348 347 349 350 351 351 351 352 352 353 354 355 354 351 349 346 343 344 347 348 347 347 347 347 346 347 350 351 352 350 345 342 343 346 348 344 340 338 334 331 330 329 329 328 328 329 330 330 331 331 333 333 333
354 353 353 352 348 342 341 345 348 346 344 344 343 341 340 345 350 350 349 346 343 343 346 350 353 355 355 353 352 351 351 351 349 348 349 349 350 349 348 350 351 352 353 354 355 353 351 348 345 343 344 347 347 346 346 346 346 347 350 353 353 350 345 342 344 346 347 345 344 343 338 333 329 329 329 329 329 330 329 330 330 330 330 331 330
353 351 351 354 353 348 345 348 351 351 349 348 349 346 341 343 349 353 356 351 343 342 347 352 355 356 355 353 351 350 350 351 351 349 349 349 349 349 348 348 350 351 352 354 355 355 351 349 349 346 344 347 346 345 345 346 347 348 350 351 350 349 347 347 346 345 346 345 345 346 342 336 331 330 329 329 329 329 329 329 329 329 330 329 329
354 353 352 354 355 353 352 352 353 355 353 351 353 350 343 343 345 349 353 351 345 345 347 349 352 355 354 349 347 347 347 347 350 350 349 348 348 348 349 349 350 350 351 353 354 355 352 350 352 350 348 349 348 347 349 348 348 349 349 350 349 348 348 347 345 345 346 345 345 346 344 340 335 331 329 329 329 329 328 328 329 329 328 327 328
354 355 354 354 355 354 355 355 354 357 355 350 352 354 351 347 345 348 352 349 344 345 346 345 346 351 353 348 344 347 349 348 349 350 349 349 348 348 348 349 350 351 352 353 354 355 354 353 353 353 351 351 350 351 351 350 350 351 351 351 349 345 345 346 345 344 344 345 346 344 343 343 339 332 330 331 330 328 328 327 327 328 327 327 327
354 355 354 354 355 354 355 356 354 356 354 349 352 357 354 349 348 351 356 356 351 348 348 349 349 351 354 352 349 350 352 352 352 352 351 350 350 349 350 350 351 350 350 352 353 354 354 353 351 352 352 352 352 352 352 351 351 351 352 351 348 345 345 346 344 343 344 345 344 342 342 344 340 334 332 331 329 328 328 328 327 327 327 327 326
354 354 354 355 356 352 353 355 351 349 350 349 352 356 354 351 349 349 352 356 356 353 352 354 355 355 355 355 354 354 353 353 354 354 352 351 352 353 353 353 353 353 353 354 354 354 354 353 350 350 350 350 351 353 353 352 351 351 351 349 349 348 347 347 345 343 343 343 341 340 342 342 341 339 338 335 331 328 327 327 327 327 326 326 325
352 353 353 355 356 354 353 355 352 348 348 349 351 354 356 355 353 352 351 351 352 351 351 353 353 353 353 354 355 354 353 354 354 354 354 355 356 355 354 356 356 357 357 356 355 354 354 354 352 350 351 352 354 355 355 354 352 351 350 350 351 351 349 349 347 344 343 342 341 341 341 341 342 344 343 339 335 333 330 327 328 329 329 327 326
352 352 353 354 356 356 355 356 356 352 349 351 352 351 354 356 355 356 355 353 354 353 353 354 353 353 354 354 354 353 354 355 354 354 355 355 355 355 355 355 355 355 355 356 356 355 356 356 355 353 354 355 355 355 355 355 354 354 354 354 353 351 350 350 349 348 347 344 340 339 340 343 344 344 343 341 341 341 338 333 332 335 336 333 331
351 352 352 353 354 356 356 356 357 355 353 355 353 347 350 354 356 357 357 356 356 356 355 355 354 354 355 355 355 355 354 355 355 355 355 354 354 356 356 355 356 357 356 356 357 357 358 357 356 354 355 354 354 354 354 355 355 355 355 353 351 350 350 351 350 351 348 342 338 339 342 344 343 343 344 344 346 346 344 341 340 342 343 340 335
349 350 351 352 352 354 355 354 355 356 355 356 354 348 348 353 354 354 354 354 356 356 355 355 354 353 353 353 354 354 354 355 356 355 356 356 356 357 358 358 358 358 356 356 357 357 356 356 355 354 354 354 354 353 353 353 352 352 350 348 347 347 348 349 349 348 346 344 345 346 346 345 344 346 347 347 349 349 346 345 344 344 345 344 341
346 347 348 350 351 352 353 353 353 354 354 355 355 353 352 352 349 348 350 352 354 355 355 355 354 353 353 352 352 352 353 355 355 353 352 351 350 351 352 352 352 352 351 352 355 355 354 354 354 354 353 353 351 350 349 349 348 346 345 344 345 346 347 348 347 347 348 349 350 350 349 347 347 348 347 346 350 352 349 347 346 346 346 346 346
346 347 347 347 348 350 351 352 352 353 353 353 352 351 352 351 348 346 348 349 352 355 356 355 354 353 352 352 351 350 351 352 352 350 346 342 339 338 339 339 340 341 342 344 348 351 353 354 353 352 351 349 346 345 345 345 343 342 343 345 346 347 347 347 348 348 350 352 352 351 349 348 347 347 346 347 352 353 352 350 348 347 347 347 348
348 349 349 348 348 349 350 351 351 352 352 351 350 349 350 350 347 345 346 348 350 353 353 353 353 352 351 350 349 349 350 351 350 349 346 342 340 339 339 338 337 337 336 336 339 343 346 348 349 348 347 346 346 345 344 342 342 345 346 346 347 346 346 349 351 349 348 350 352 352 350 348 349 351 351 351 353 355 354 352 350 350 351 352 353
352 351 351 351 350 349 349 349 349 349 349 349 349 349 350 350 348 346 347 349 351 350 349 350 351 351 350 349 349 348 348 348 348 348 348 347 345 344 344 344 342 341 340 340 339 339 338 341 344 346 346 346 348 348 346 345 345 345 345 344 345 347 349 351 351 349 348 349 351 351 350 349 351 354 355 355 355 356 355 355 354 354 355 355 356
351 351 352 351 350 349 348 348 347 347 347 347 347 347 348 349 348 345 344 346 348 348 349 350 350 350 350 351 351 350 348 347 348 349 350 351 349 346 344 345 345 344 344 344 344 344 343 344 346 348 348 348 349 349 348 347 346 345 346 348 349 350 351 351 350 350 349 349 350 351 351 351 353 355 357 357 357 357 357 357 356 355 355 355 356
347 348 350 352 352 350 348 348 349 348 348 347 347 346 346 345 343 341 340 343 346 347 346 348 349 350 351 352 353 352 350 350 352 352 352 354 354 351 346 345 345 346 346 346 345 345 346 348 348 349 349 348 349 350 350 351 351 351 351 351 351 352 352 350 350 350 351 351 352 353 352 353 355 356 357 357 357 357 357 358 357 356 356 357 356
348 348 348 352 353 351 349 349 351 350 348 347 346 344 343 342 339 337 337 340 344 345 345 347 349 352 353 353 354 354 352 352 354 354 352 352 351 349 346 344 344 346 348 349 349 349 349 349 349 349 350 350 351 351 352 353 353 353 352 351 351 351 351 350 350 351 353 354 354 353 353 353 353 354 355 355 355 355 355 356 357 356 356 357 357
351 351 350 352 354 353 352 353 353 349 344 344 345 342 342 343 342 341 340 340 342 345 347 350 352 354 355 354 353 353 352 352 353 353 351 349 346 344 343 343 343 345 348 349 350 351 351 350 351 351 352 351 351 351 351 351 350 350 350 350 350 349 349 350 349 350 352 353 353 353 354 353 352 353 354 353 353 353 351 351 355 356 355 356 356
349 351 352 354 353 352 352 353 352 347 343 343 344 344 345 348 348 348 347 346 346 347 349 351 352 352 351 351 351 352 351 350 350 350 349 347 346 345 344 344 343 345 347 348 348 349 350 350 350 351 351 351 351 350 350 349 349 350 350 350 348 349 350 351 350 350 350 351 352 353 354 353 353 354 355 354 352 352 350 350 353 354 355 355 355
347 348 351 353 352 351 351 351 350 346 344 345 346 347 349 351 352 352 351 350 350 349 350 351 351 349 348 349 349 349 349 349 349 348 347 347 347 347 347 346 346 347 350 351 351 350 350 350 350 350 351 352 352 351 350 351 351 351 352 351 350 351 352 352 352 352 352 351 352 353 354 354 354 355 356 354 352 351 352 353 354 355 355 356 355
348 349 350 351 351 350 350 350 349 347 346 347 348 349 351 351 351 351 351 351 351 352 352 352 351 350 349 350 349 349 350 351 350 349 349 349 349 349 348 349 349 351 352 352 352 352 351 350 350 351 352 352 352 352 353 353 353 352 352 352 352 353 353 353 353 353 353 353 353 354 354 354 354 355 355 354 353 351 350 352 354 355 355 356 355
Wind_Speed
16 14 13 14 14 14 13 10 12 13 12 11 8 8 9 8 8 7 7 7 6 6 6 6 7 6 6 7 7 7 6 6 6 6 5 2 4 6 6 5 6 6 7 7 8 9 9 9 9 8 8 8 8 8 8 9 9 9 9 9 9 8 8 8 8 7 7 8 8 7 7 7 7 7 6 6 6 5 5 6 6 6 6 7 8
13 14 13 12 11 13 13 10 10 11 12 11 8 8 7 6 7 7 7 7 6 6 6 6 6 6 6 6 5 5 5 5 6 6 6 3 2 6 6 4 6 6 7 8 9 9 9 8 8 8 8 8 8 8 9 9 10 10 10 9 9 8 8 8 8 8 8 9 9 8 8 8 8 7 6 6 5 5 6 7 7 7 6 6 7
12 12 12 10 9 10 11 9 9 9 10 9 7 7 6 5 6 7 7 7 6 5 5 6 5 5 6 5 5 5 4 5 6 5 5 3 1 5 6 4 5 7 8 8 9 9 8 8 8 8 8 8 8 9 10 10 10 10 10 9 9 8 9 9 8 8 9 9 9 9 9 9 8 8 7 6 6 6 6 7 7 6 6 5 5
12 10 10 9 9 9 8 9 9 8 8 8 7 6 5 6 7 8 8 6 5 5 4 5 4 4 5 5 5 4 4 4 5 4 4 4 2 3 4 5 6 7 8 9 9 8 8 8 7 7 8 8 9 9 9 9 9 9 9 9 9 9 8 8 8 8 9 9 9 9 9 9 9 9 8 8 7 7 7 7 6 6 6 7 7
14 11 8 8 9 8 8 8 8 7 8 9 8 6 5 5 6 6 6 5 4 3 3 4 4 4 4 5 4 4 4 4 4 4 3 4 4 2 1 5 7 8 8 8 8 8 8 7 7 7 7 8 9 9 9 9 9 9 9 9 8 8 8 8 8 9 9 10 10 10 10 10 10 10 11 10 9 9 8 8 7 8 8 9 10
14 13 8 7 8 8 8 7 8 9 9 10 7 5 5 5 5 4 4 3 3 3 3 4 4 4 4 4 4 4 4 4 4 4 4 4 4 4 2 3 5 7 9 8 7 7 8 8 7 7 8 8 9 9 9 9 9 9 9 9 8 8 8 9 9 10 10 10 10 10 10 11 11 12 13 11 11 10 10 9 9 9 10 10 11
12 13 10 6 6 7 6 7 9 8 7 10 8 4 5 4 4 3 2 3 2 2 3 3 3 3 4 4 4 4 4 4 4 4 5 5 4 5 4 3 2 2 4 6 7 8 8 8 8 8 8 8 9 9 9 9 9 9 9 9 9 9 9 10 10 11 11 11 11 12 12 12 13 13 13 12 12 11 11 10 10 10 11 11 12
11 13 11 5 5 6 5 7 8 7 7 10 9 5 5 4 4 4 4 5 5 3 3 3 3 3 4 4 4 4 4 4 4 4 5 5 5 5 5 5 5 5 4 1 5 8 8 9 9 9 9 9 9 9 10 9 9 9 9 9 10 10 11 11 12 12 12 13 13 13 13 14 14 14 14 13 13 13 12 11 11 11 12 13 14
10 13 12 6 5 5 6 7 6 9 10 8 7 6 6 4 5 7 6 7 8 4 2 2 3 4 5 5 4 4 4 4 5 5 6 5 5 4 3 4 4 6 6 3 1 5 7 10 11 11 10 9 10 10 10 9 9 10 10 11 11 12 13 14 15 15 15 15 15 15 15 15 15 15 14 14 14 14 13 12 12 12 13 14 14
9 13 13 7 6 6 6 7 7 10 10 6 7 8 7 4 4 8 9 8 9 4 2 3 3 4 5 4 4 5 4 5 6 5 5 5 5 5 2 1 2 3 4 4 2 2 3 6 10 11 11 11 10 11 11 11 11 12 13 14 14 15 16 17 17 18 18 18 18 17 16 16 16 16 15 15 15 14 14 13 13 13 14 15 15
9 12 13 7 5 6 6 7 9 11 10 7 6 6 7 5 4 6 7 7 7 4 2 3 3 5 6 5 5 5 5 5 5 5 6 6 5 6 3 1 2 2 3 3 2 3 2 3 7 8 9 12 12 11 12 13 13 14 15 16 17 17 17 18 19 19 20 19 19 18 17 17 17 17 17 16 16 15 15 14 15 15 16 16 16
9 10 12 9 6 5 6 8 10 10 10 8 5 4 7 7 6 6 6 5 4 2 3 4 5 6 6 6 5 5 6 6 5 5 6 6 4 5 4 3 2 2 4 3 2 4 4 4 5 3 5 9 11 11 13 13 14 15 16 17 17 17 18 18 19 19 19 19 19 18 18 18 18 17 17 17 16 15 15 15 15 16 17 17 17
9 9 11 12 8 6 7 8 7 8 9 6 4 6 7 6 5 7 6 3 3 3 5 5 5 6 6 6 6 6 6 7 6 6 6 6 5 5 4 4 5 5 5 5 5 5 6 6 5 2 3 7 10 11 12 13 13 14 15 16 17 17 18 18 18 18 18 18 18 18 18 18 18 18 17 17 16 16 15 15 16 16 17 17 18
9 9 9 11 9 7 8 8 6 7 8 6 6 6 7 5 3 4 5 4 4 4 6 5 4 6 7 7 7 6 5 6 7 6 6 7 6 5 5 5 6 6 5 6 6 6 6 6 6 5 4 5 6 9 11 12 11 13 14 15 16 17 17 18 18 18 18 18 17 17 17 17 17 18 17 17 16 16 15 15 15 16 17 17 18
9 9 8 9 8 7 6 7 6 6 6 6 6 5 6 5 3 4 5 5 6 5 5 6 5 5 6 6 7 7 6 5 6 6 6 6 6 5 6 7 7 5 5 7 8 8 7 7 7 7 7 6 5 5 8 10 11 11 13 14 15 16 16 17 18 18 18 18 18 17 16 16 16 16 16 16 16 15 15 15 15 16 17 17 18
8 8 7 7 9 7 5 5 7 6 5 6 6 5 5 4 3 5 5 5 6 7 6 6 8 7 5 5 6 8 8 7 7 6 5 6 6 6 7 8 7 6 6 7 7 6 6 8 8 8 10 9 8 6 7 10 11 11 13 14 14 15 16 16 17 17 18 18 18 17 17 16 16 15 15 15 15 15 15 15 15 16 17 18 19
7 7 6 6 8 7 6 5 6 7 6 5 5 6 5 3 5 5 4 5 6 7 7 7 8 8 6 5 4 5 6 7 6 4 4 7 6 6 6 7 7 5 6 7 7 5 4 8 9 10 12 8 8 10 8 10 12 13 14 14 14 15 15 16 16 17 18 18 18 18 17 17 16 16 15 15 15 15 15 15 15 16 17 18 19
7 7 5 6 7 7 6 5 5 7 6 4 5 6 5 4 4 4 4 6 8 6 7 7 8 8 7 6 5 3 4 4 5 3 4 5 5 5 5 5 6 5 5 8 8 5 3 7 7 7 8 6 9 10 8 9 10 12 13 13 14 15 15 16 16 17 18 18 18 18 18 17 17 17 16 16 15 15 15 15 15 17 18 18 19
8 7 6 6 6 6 6 5 4 4 5 5 6 6 5 2 2 3 4 8 9 6 6 6 6 6 6 6 5 5 4 3 5 4 3 2 2 6 6 5 5 4 4 7 7 4 3 4 4 4 4 7 9 7 6 11 11 12 13 13 13 14 15 16 16 17 18 18 18 18 18 18 17 17 17 16 16 15 15 15 15 17 18 18 19
9 9 8 7 6 6 6 6 5 4 4 5 4 4 5 3 4 5 6 7 7 6 6 7 6 5 5 6 5 5 5 4 5 4 2 3 2 3 5 5 5 4 4 6 5 4 5 4 2 3 5 7 8 6 5 7 9 12 14 13 13 13 14 15 16 17 18 18 18 18 18 18 17 17 17 17 16 16 16 15 15 16 17 18 19
10 9 8 7 7 6 6 7 6 4 4 3 3 4 5 4 5 5 5 6 5 5 6 6 6 4 4 6 5 5 5 3 3 3 1 3 3 3 5 5 4 5 4 4 3 4 5 3 2 2 5 8 8 5 4 5 7 9 13 15 14 13 13 14 14 16 17 18 19 19 19 18 18 16 16 16 16 16 16 16 16 16 16 17 19
8 8 8 7 6 6 5 5 5 4 4 4 4 4 4 3 4 4 4 5 4 4 4 3 5 4 3 5 5 4 5 3 2 2 2 2 2 1 3 3 3 3 1 1 2 3 2 2 3 2 3 6 8 6 5 7 7 5 11 16 16 14 13 13 13 15 16 18 19 19 20 19 19 17 15 15 15 16 17 17 17 17 17 18 19
7 7 7 6 6 6 4 3 4 4 5 6 4 2 2 2 3 4 3 4 4 3 3 2 2 3 2 3 3 2 3 3 2 2 2 2 4 3 1 1 1 3 1 1 1 1 1 2 3 1 1 3 8 7 5 7 7 6 11 18 19 15 14 14 14 15 16 18 19 20 20 20 20 19 16 15 15 16 17 17 18 18 18 19 19
7 6 6 6 6 6 6 5 5 4 3 5 5 4 3 3 3 4 3 3 3 2 2 2 1 2 2 1 2 1 1 2 1 1 1 1 2 2 1 3 2 2 2 0 2 3 1 0 1 3 4 5 8 8 7 8 9 10 13 19 21 17 15 15 15 16 17 18 20 20 21 20 20 20 18 16 16 16 17 18 19 19 19 19 19
8 7 7 7 7 6 7 7 6 5 5 5 6 7 7 4 3 3 2 2 3 3 2 1 1 0 1 1 1 1 1 1 1 0 1 1 1 2 2 2 3 2 2 2 3 4 3 3 4 7 9 8 7 10 11 9 8 11 14 19 21 16 16 18 17 16 17 19 21 21 20 20 19 19 19 18 17 16 18 18 19 19 19 20 20
8 7 8 8 7 6 7 7 6 6 6 6 5 7 7 5 3 2 2 2 2 2 1 1 1 1 1 1 1 2 2 1 1 2 2 2 1 2 3 2 4 5 3 2 2 4 4 3 4 7 10 11 10 13 15 12 11 12 14 19 19 15 17 21 19 18 20 22 22 21 20 19 18 18 18 18 18 17 18 19 19 19 19 20 20
8 8 9 9 8 8 7 7 7 7 6 6 6 5 6 6 4 4 4 3 2 1 1 1 2 2 2 2 2 2 2 2 2 2 2 2 2 3 3 3 4 4 4 3 3 4 5 5 5 7 11 15 14 15 16 15 17 17 15 18 18 16 19 22 21 22 22 22 21 20 19 18 18 18 18 19 19 18 19 19 19 19 20 20 21
8 9 10 10 10 9 8 7 7 7 6 7 6 5 6 6 5 5 4 3 4 3 2 2 3 3 3 3 3 2 3 4 3 2 3 2 1 2 2 3 4 4 4 5 5 5 6 7 8 9 13 14 13 15 15 13 17 18 16 17 17 16 19 22 22 22 21 20 20 19 19 19 18 18 19 19 20 19 19 20 20 20 20 21 21
8 9 9 10 10 9 8 8 8 7 6 7 7 7 7 6 5 5 4 4 6 5 3 3 3 3 3 4 4 3 4 5 3 3 5 5 3 3 3 3 4 5 5 6 6 7 7 8 9 10 13 13 12 15 14 11 14 15 14 16 15 15 18 20 20 19 19 21 21 20 20 19 19 19 20 20 20 20 20 20 20 20 20 21 21
8 8 8 9 10 10 10 9 8 7 7 7 7 7 7 6 6 6 6 6 7 6 4 4 4 4 4 4 4 4 4 5 4 4 5 6 4 4 4 4 5 5 5 7 8 8 8 9 10 10 12 13 12 14 13 12 15 15 14 14 14 15 17 17 16 17 20 23 23 22 21 21 20 20 20 20 20 21 21 20 21 21 21 21 22
9 10 9 8 9 10 10 10 8 8 8 7 7 8 7 7 7 6 7 7 8 6 5 5 4 5 6 6 5 5 5 5 5 5 6 6 6 6 6 6 6 6 7 7 9 9 9 9 11 12 13 14 13 13 13 13 16 17 16 14 15 17 18 18 17 18 20 22 23 23 24 23 22 21 21 21 22 22 21 21 21 22 22 22 22
9 10 10 8 8 9 9 9 8 8 8 8 8 8 8 8 8 7 7 9 9 7 7 6 5 6 7 7 7 7 6 6 6 6 7 7 7 7 7 7 7 7 7 8 9 11 11 10 12 12 12 13 13 13 14 14 14 16 16 15 15 17 17 16 16 18 19 21 21 23 25 25 23 22 22 22 23 23 22 22 22 22 22 22 22
9 9 9 9 9 9 9 9 9 8 9 9 9 9 9 9 9 9 9 10 9 8 8 8 7 7 9 9 8 8 8 8 7 7 7 7 7 7 7 7 7 7 7 8 10 13 12 11 11 11 11 13 13 12 13 14 13 14 14 14 14 15 15 15 16 17 19 20 21 22 25 25 23 23 23 23 23 24 23 23 23 23 23 23 23
10 9 9 9 9 10 9 9 9 9 10 11 9 9 9 9 9 9 9 9 8 8 8 8 8 8 9 9 9 8 8 9 8 8 7 8 8 8 8 7 7 7 8 9 10 12 13 11 11 12 11 11 12 12 13 13 13 13 13 13 13 14 15 14 15 18 20 19 20 22 24 24 23 23 22 21 23 24 24 24 24 23 23 23 23
11 10 10 10 10 11 10 10 11 11 12 12 9 9 10 10 9 8 8 8 8 8 8 8 8 8 8 9 9 8 8 9 9 8 8 8 8 8 8 8 9 9 8 9 11 12 13 13 12 12 12 12 13 13 13 12 12 13 13 13 13 14 14 14 14 17 19 19 20 21 22 23 26 26 24 23 23 23 23 23 24 24 24 24 24
11 11 11 10 11 11 10 11 12 12 12 11 9 10 11 10 10 9 9 10 10 9 9 8 8 8 9 9 8 8 8 9 10 9 8 8 8 8 8 8 9 9 9 9 11 12 13 14 14 13 13 14 13 12 12 12 12 12 13 13 14 13 14 14 13 14 17 19 20 21 22 24 26 26 25 27 27 25 23 23 23 23 24 24 24
12 12 11 11 12 12 11 11 11 10 11 11 10 10 10 10 10 9 9 10 10 9 9 9 9 9 10 10 9 9 9 9 10 9 8 8 8 8 8 8 8 8 9 10 11 12 13 15 15 15 15 14 13 12 12 12 13 13 13 13 13 14 14 14 14 15 16 17 18 20 22 24 23 23 25 29 29 27 26 26 24 24 24 24 23
12 12 11 12 12 11 11 11 11 11 11 11 11 11 11 11 10 10 10 10 9 9 9 9 10 10 10 10 10 10 10 10 9 9 9 9 9 8 9 10 10 10 10 11 12 13 13 14 15 15 14 13 13 12 12 13 14 14 14 14 14 15 16 16 17 17 16 17 19 21 21 21 21 22 26 28 27 27 28 27 25 23 23 23 22
12 12 12 12 11 11 11 11 11 11 11 11 12 12 11 12 11 10 11 10 10 10 10 9 10 10 11 11 11 11 10 10 10 9 9 9 9 9 10 10 10 10 11 11 11 12 13 14 15 14 14 13 13 13 13 14 14 14 15 16 16 16 17 18 18 18 19 21 24 22 19 18 21 24 26 26 25 26 26 25 23 22 23 23 22
13 13 13 12 12 12 12 12 11 12 12 12 12 13 12 12 12 12 12 12 11 10 10 10 10 11 11 11 11 11 11 11 10 10 9 9 9 8 9 9 10 11 12 12 12 12 13 13 14 14 14 14 14 14 13 13 14 15 15 16 17 18 18 18 18 20 22 24 23 21 18 20 23 25 26 26 25 24 24 24 23 22 22 23 24
14 14 14 13 12 12 13 13 12 12 12 12 13 13 12 11 12 12 12 12 11 11 10 11 11 11 12 12 11 12 12 13 13 12 12 12 12 12 12 12 12 13 13 13 13 14 14 14 15 14 14 15 14 14 14 13 15 17 17 16 17 19 19 21 22 23 22 22 21 21 22 26 28 28 28 26 24 22 22 22 21 20 21 23 26
15 14 14 14 14 13 13 14 13 12 12 14 16 15 13 12 12 12 13 13 12 12 11 12 12 12 12 12 12 12 14 15 17 17 16 15 15 15 15 15 15 15 16 16 15 15 15 15 15 15 15 16 15 15 16 16 17 17 17 16 18 20 22 25 26 25 23 22 23 26 30 33 33 31 29 26 24 22 21 20 19 20 22 24 26
17 16 15 15 15 14 13 13 13 12 15 17 17 15 14 15 14 13 13 13 12 12 12 12 12 12 12 12 12 13 15 16 17 16 16 16 15 14 15 16 16 17 17 18 18 17 17 17 17 16 17 18 18 17 18 18 17 17 18 18 21 24 26 27 29 30 30 28 28 32 36 36 33 30 28 26 24 22 20 20 20 21 23 24 26
18 17 16 16 16 15 14 14 13 14 17 18 17 16 17 17 17 16 16 14 13 13 13 13 13 13 13 12 13 13 13 15 15 14 15 15 14 13 14 15 16 17 18 18 19 19 19 20 19 18 19 19 19 18 18 18 19 21 22 23 24 26 27 29 31 34 35 34 35 37 38 34 29 27 26 25 24 22 21 21 20 21 23 25 26
18 17 16 16 16 16 16 14 13 16 18 18 18 18 19 20 19 19 19 18 15 14 13 13 14 14 13 13 13 13 12 13 14 13 13 15 14 13 14 15 16 17 17 18 18 19 19 20 20 20 20 21 21 21 21 21 23 25 25 25 26 27 29 31 35 38 39 38 36 35 34 30 26 26 26 25 24 23 22 22 21 22 23 25 26
20 19 17 16 16 17 16 14 15 19 19 18 19 20 20 21 20 19 19 19 16 15 15 14 15 15 13 13 13 13 13 14 15 14 13 13 14 14 15 16 17 18 19 19 20 20 20 20 21 22 22 22 22 22 21 21 22 24 26 28 29 30 32 35 37 38 38 34 29 28 29 27 25 25 26 26 26 25 23 23 23 23 24 24 24
21 20 19 17 15 16 15 14 15 20 21 19 20 21 20 19 18 17 18 18 16 15 15 14 14 15 14 14 14 14 15 16 17 17 17 16 16 17 17 18 19 19 19 20 21 21 22 22 22 23 23 21 20 20 20 20 22 25 28 30 32 33 34 35 35 34 31 27 23 24 28 29 27 27 27 25 26 25 24 25 25 23 23 23 23
20 21 20 18 16 16 14 15 17 21 22 21 20 20 18 16 15 16 16 17 16 16 15 14 14 13 13 14 14 14 17 18 18 19 19 19 19 20 20 20 20 20 18 17 18 20 21 22 22 22 23 23 23 24 25 26 26 27 28 30 31 32 31 31 33 32 28 25 22 22 27 30 30 28 27 25 25 25 26 26 24 21 21 22 23
21 23 23 20 19 18 17 18 21 21 20 19 18 17 17 16 16 16 16 16 16 16 16 17 17 14 12 13 14 16 17 18 19 20 20 20 20 20 20 21 21 20 19 18 20 21 22 22 23 24 26 26 26 25 26 26 26 27 28 30 30 29 26 27 31 31 29 27 25 24 27 29 27 25 25 26 26 26 26 26 23 20 21 22 22
23 26 24 20 20 20 19 20 22 22 20 18 17 17 17 17 17 17 16 16 16 15 17 18 18 16 15 14 15 19 20 19 20 21 21 21 21 21 21 21 21 20 19 19 20 21 21 22 23 25 25 25 25 25 25 25 25 24 25 27 26 24 22 24 28 31 31 28 25 24 26 26 25 24 25 28 31 29 26 25 22 21 22 22 23
24 24 22 21 23 24 22 21 22 22 19 17 17 17 18 18 17 16 16 15 14 14 17 18 17 16 15 15 16 19 21 22 21 21 21 21 20 20 21 20 19 19 19 20 21 22 22 22 22 23 23 24 25 24 23 22 22 21 21 22 21 20 22 24 25 28 29 27 23 24 26 27 27 26 26 29 33 33 29 26 24 22 23 24 25
Wind_Direction
115 120 128 131 137 146 145 133 130 131 125 119 119 119 119 126 131 131 127 125 129 124 113 110 112 114 110 107 109 112 114 113 115 117 125 128 43 54 62 68 85 93 99 103 102 100 97 95 94 92 89 86 84 82 79 78 74 72 69 66 62 59 56 51 47 41 36 29 24 20 16 12 9 5 1 356 351 345 340 336 333 331 329 323 319
125 130 133 138 134 140 151 141 134 137 127 119 119 121 127 132 126 122 117 112 117 124 125 124 118 117 117 113 109 111 115 114 113 115 127 158 14 53 70 79 95 105 106 106 104 100 98 96 91 87 84 81 81 79 76 72 68 64 61 59 54 51 48 43 38 33 32 30 26 23 19 18 18 18 12 4 1 357 348 339 333 331 330 321 309
129 133 133 138 128 129 144 135 123 121 113 116 121 124 135 136 125 117 113 109 114 120 121 125 122 117 115 116 116 111 117 121 113 112 124 151 341 44 71 93 103 107 108 105 102 99 96 92 87 84 82 81 78 75 72 67 63 60 55 51 46 42 40 38 34 33 34 33 31 27 21 18 20 23 23 21 18 12 358 345 339 337 336 331 319
123 122 121 128 126 128 130 116 112 111 115 126 124 119 117 114 112 105 101 101 107 114 118 119 117 124 121 114 119 117 120 129 123 123 130 141 144 43 63 96 103 104 103 102 101 98 94 87 83 82 79 79 77 71 66 60 56 52 47 44 40 39 38 38 37 38 39 38 36 31 26 23 22 25 33 38 32 22 15 6 1 357 354 350 346
124 115 113 121 119 121 115 106 110 117 122 116 103 101 97 90 87 80 85 98 112 111 113 114 107 116 120 113 122 124 123 132 130 132 138 133 137 142 86 90 96 100 98 96 94 89 85 82 78 78 78 75 70 63 58 52 49 46 45 43 41 42 42 42 42 42 43 42 41 37 32 30 28 28 33 37 33 27 25 20 14 7 1 357 352
128 116 108 114 112 111 107 108 115 114 112 101 86 89 90 78 72 65 71 93 115 110 105 114 109 106 113 114 121 131 133 135 134 137 146 144 137 148 152 96 96 92 83 79 81 79 75 75 72 70 70 67 63 57 52 48 46 45 45 45 45 46 45 45 45 45 45 44 43 42 38 35 32 31 31 32 32 30 28 23 18 10 4 0 356
132 119 106 105 107 102 104 117 112 102 103 102 96 91 88 89 97 93 99 111 111 104 104 114 118 113 114 112 114 124 128 129 136 139 141 147 149 153 153 151 164 113 67 53 62 69 67 67 67 65 62 59 56 52 49 46 45 46 47 48 49 49 48 47 47 46 46 46 44 43 41 37 34 32 31 31 31 31 29 25 19 12 6 3 359
135 120 105 105 111 105 118 122 110 107 110 104 109 119 109 120 129 122 143 140 119 104 102 116 127 126 123 122 117 119 120 121 135 136 129 136 143 148 152 154 161 141 128 81 49 62 65 66 60 55 56 56 54 50 49 47 48 50 52 54 54 53 52 49 48 48 47 45 44 43 40 36 33 31 30 29 28 28 27 24 19 13 6 2 360
137 123 111 114 119 117 123 117 118 123 112 100 119 123 94 96 125 123 122 112 103 95 107 128 132 132 125 123 122 123 128 128 128 132 133 134 135 132 143 137 97 83 106 141 26 41 51 61 56 49 50 54 55 52 52 52 55 58 59 59 58 56 55 53 50 48 46 43 41 40 37 34 31 29 29 27 26 25 24 21 17 12 6 4 1
137 129 118 120 126 127 125 124 134 126 111 104 124 116 95 80 105 117 113 101 92 81 111 129 129 134 126 124 128 120 124 136 131 130 129 126 134 129 115 110 62 60 117 144 139 15 7 33 36 35 42 52 57 58 60 61 62 63 63 62 59 57 55 53 51 46 43 41 38 38 35 33 31 30 29 28 27 25 23 21 18 15 13 9 5
139 134 123 122 129 130 136 133 125 116 111 113 114 118 125 120 107 110 103 94 88 83 115 109 103 115 113 116 126 123 125 136 133 132 128 120 133 136 109 104 140 109 104 115 75 29 4 22 25 19 29 43 51 58 62 63 64 65 63 60 56 54 52 49 47 44 41 38 36 35 33 32 30 30 30 30 29 27 25 24 22 21 20 15 9
143 139 130 129 127 129 138 127 120 119 117 113 106 119 129 120 113 106 83 72 87 106 107 96 106 106 105 113 115 128 137 138 138 136 137 130 136 151 126 96 130 89 59 87 91 40 32 52 50 19 6 20 31 46 58 61 63 63 59 56 53 49 47 45 42 41 39 37 35 33 30 28 27 26 27 29 29 28 26 25 23 22 21 17 12
143 142 139 135 135 146 140 126 130 135 126 127 145 138 121 103 95 91 78 68 92 112 108 103 121 121 119 124 117 124 133 138 147 141 146 145 131 143 141 99 96 93 74 64 60 49 32 28 39 40 11 5 8 26 47 57 59 59 55 51 49 46 43 40 38 36 35 34 33 30 27 25 24 23 22 24 26 26 25 21 20 18 17 15 11
143 142 140 137 144 154 144 140 150 149 143 151 155 137 112 90 65 76 85 89 83 98 121 117 123 133 128 124 126 133 134 144 155 150 152 151 131 123 130 114 95 98 93 68 71 81 57 26 15 16 28 24 11 10 26 46 53 52 52 47 44 43 40 37 34 31 29 27 27 25 24 22 20 19 17 18 19 21 21 18 17 14 11 11 8
146 142 138 142 146 140 140 151 154 158 157 145 137 123 96 79 72 100 105 105 91 81 102 108 103 123 130 130 131 129 130 142 146 144 144 147 141 120 115 113 105 113 110 94 105 110 84 57 28 11 16 24 40 19 3 29 44 42 44 42 39 38 36 34 30 28 25 22 21 19 19 19 17 15 12 12 12 11 13 12 13 11 8 6 5
148 139 145 158 144 134 152 158 147 151 146 126 121 104 81 73 98 107 96 98 100 82 76 104 114 115 126 137 133 126 132 140 138 140 146 148 139 122 125 121 110 119 121 102 94 93 86 79 62 46 43 24 29 36 357 13 32 37 40 36 35 34 31 31 27 25 22 19 17 14 14 15 14 13 8 7 6 3 3 4 6 7 5 3 2
158 145 164 169 147 151 166 156 143 137 126 111 105 100 90 82 89 83 72 90 101 89 78 92 104 99 94 99 106 116 122 132 139 135 129 135 122 111 136 133 120 123 124 122 111 97 87 75 65 60 60 41 33 38 8 4 16 23 34 31 31 31 26 27 25 23 20 17 15 12 10 11 11 12 9 5 2 359 357 356 358 0 360 359 359
161 151 176 176 157 162 155 146 144 133 128 121 108 113 107 79 77 71 75 104 107 98 92 90 84 81 83 83 83 79 65 100 128 95 81 117 125 124 135 126 125 129 115 124 127 119 105 82 68 55 62 68 62 47 10 8 10 8 22 26 27 28 24 24 23 21 19 15 12 9 7 7 7 8 8 6 2 359 356 352 352 353 353 354 354
167 164 183 182 164 163 147 133 133 133 141 134 117 121 120 98 114 111 104 116 113 97 92 99 90 82 84 77 78 81 59 74 119 116 91 85 115 127 132 131 130 130 120 128 127 98 80 89 62 26 49 56 61 64 17 9 5 357 5 12 18 23 23 22 20 17 15 11 9 6 4 2 2 4 4 5 2 359 357 353 350 350 349 349 349
180 175 178 180 167 167 159 143 149 165 154 136 128 151 171 166 132 118 116 117 113 96 88 90 88 87 85 76 73 77 72 80 105 114 116 109 115 121 127 136 124 109 117 127 121 90 90 92 42 6 26 22 21 51 45 1 354 348 342 344 357 7 13 16 15 12 9 6 3 1 359 357 355 357 359 1 0 359 358 356 353 350 348 347 347
184 178 175 179 174 175 174 159 163 169 144 145 174 176 182 163 127 124 124 113 102 99 94 79 76 81 73 72 69 67 75 87 100 88 55 108 132 137 128 128 109 93 93 106 102 102 106 75 52 33 20 5 344 5 26 347 5 355 325 324 335 345 355 1 5 5 2 360 357 353 353 351 349 350 353 356 358 359 360 358 356 352 350 349 348
184 186 180 182 180 176 180 166 163 166 156 173 191 174 163 151 143 147 143 130 114 103 93 64 74 83 69 77 74 63 71 58 71 85 44 57 51 80 138 145 141 135 65 69 89 91 91 36 69 108 12 353 322 328 340 337 1 346 311 316 321 328 338 344 350 354 354 353 351 347 345 344 344 343 344 348 352 356 358 357 356 354 353 353 351
187 194 184 185 190 176 171 173 175 186 188 184 181 165 152 164 163 152 153 154 138 119 106 68 68 82 71 82 76 63 72 48 45 79 46 39 22 17 69 15 107 147 131 122 193 330 357 56 65 66 227 286 307 314 303 310 333 331 312 310 311 318 325 330 339 342 344 346 344 342 339 338 339 338 339 340 342 349 351 352 352 352 352 352 352
186 191 185 191 202 183 172 190 191 187 199 185 169 165 170 199 194 159 160 173 162 167 129 84 37 83 73 49 58 57 67 33 33 49 17 44 36 15 16 357 8 113 109 54 291 298 299 297 346 315 270 266 294 300 300 318 334 334 317 303 305 314 317 324 331 333 336 338 337 337 334 333 333 334 335 335 335 339 342 343 345 345 346 347 348
184 187 184 195 210 198 185 198 203 190 198 200 184 177 171 184 211 166 151 183 173 184 161 81 331 32 28 326 9 15 337 340 322 319 349 351 310 318 333 312 291 302 330 314 292 280 286 307 298 290 291 298 294 290 306 324 324 318 307 300 305 311 313 317 322 328 332 332 332 332 331 331 331 331 332 332 332 334 335 336 337 338 340 341 342
186 186 183 190 203 209 201 204 211 206 206 207 199 195 179 176 208 175 163 254 211 175 200 313 301 282 300 312 330 321 307 297 294 296 312 326 321 332 352 311 284 297 300 267 279 285 286 306 301 284 291 302 300 302 312 315 314 314 302 302 310 310 309 313 318 328 332 331 332 332 331 332 330 329 330 330 331 331 332 332 331 333 334 336 337
186 189 190 188 190 205 209 205 211 215 214 209 204 211 196 184 200 186 178 253 265 187 209 274 286 279 287 291 285 300 305 290 289 304 318 335 351 359 4 343 315 301 286 275 281 283 270 272 275 267 283 298 305 315 322 316 317 323 313 310 313 308 308 314 320 326 329 330 332 333 334 333 330 330 329 330 331 329 329 328 327 329 330 331 333
190 196 198 193 193 203 204 205 212 211 213 215 204 206 209 199 210 207 186 232 270 252 221 242 271 279 286 287 283 290 289 280 272 283 297 295 323 340 339 339 327 310 303 296 281 274 273 281 283 271 287 307 314 318 323 315 309 315 314 309 308 306 308 309 313 320 327 332 336 336 335 333 331 330 329 330 331 330 329 327 326 327 328 329 330
192 197 202 199 200 200 192 199 214 210 210 219 210 208 212 205 218 227 201 214 249 252 244 253 267 276 278 279 288 290 281 286 287 274 282 284 286 309 308 305 305 304 308 302 291 289 282 286 293 288 301 320 320 312 315 306 296 298 301 301 303 304 301 302 313 325 331 334 338 338 336 333 331 329 329 330 331 332 332 331 331 331 331 330 329
186 188 202 204 204 201 192 196 208 208 209 215 215 215 215 210 222 234 222 219 236 247 251 252 257 267 267 263 272 279 279 291 295 277 278 287 286 285 284 284 286 289 296 298 296 296 290 290 293 295 306 316 312 306 306 303 298 297 297 299 300 300 303 317 335 336 329 330 334 336 336 333 330 329 329 330 331 333 335 335 335 334 333 331 329
192 192 198 201 208 208 200 200 205 209 211 211 216 218 214 214 222 235 245 244 242 244 252 259 263 263 259 256 258 262 266 273 276 271 269 274 276 274 274 276 277 278 284 290 290 290 293 296 293 293 299 303 304 303 301 300 299 298 301 302 302 309 321 338 344 331 322 324 326 330 333 332 330 330 331 331 332 335 336 337 336 335 334 332 331
203 205 201 196 206 210 204 204 206 211 213 209 215 223 217 218 221 222 239 254 253 247 244 244 248 255 257 258 259 259 262 265 267 272 272 272 273 272 272 271 272 277 281 282 285 289 294 296 295 294 295 297 299 298 296 296 296 297 300 302 308 318 325 330 330 321 317 319 320 323 328 330 329 330 331 332 333 335 336 336 335 335 335 335 335
202 209 207 199 203 207 201 206 207 210 218 211 212 225 224 224 226 219 225 242 250 247 248 244 239 248 258 261 264 265 267 267 263 264 269 272 272 270 271 271 270 274 275 277 283 290 296 299 297 296 298 298 299 296 294 296 297 297 300 306 316 322 319 317 320 316 314 318 319 320 325 330 330 330 330 331 333 334 335 335 334 334 335 336 337
197 200 206 202 205 205 199 208 207 205 224 223 213 222 229 229 230 226 231 247 250 243 248 252 248 247 255 262 266 268 269 270 267 264 263 266 268 268 268 269 270 270 270 275 279 285 293 298 296 298 302 301 297 296 297 300 303 305 308 314 319 319 315 315 318 316 316 318 319 321 325 327 329 331 330 329 331 331 330 330 331 331 332 333 336
198 197 202 200 208 209 199 210 213 207 223 229 215 219 231 233 231 225 227 245 254 251 250 254 256 253 255 262 266 263 262 263 262 261 260 262 266 267 265 264 265 267 268 271 274 279 287 292 294 297 298 296 294 297 299 301 305 307 309 313 315 315 314 314 317 318 317 316 317 322 323 322 325 329 329 328 327 326 325 325 326 327 328 329 331
198 199 198 196 213 220 206 212 222 218 223 228 219 221 231 234 234 227 222 226 236 245 247 247 250 251 252 257 259 255 253 253 255 258 260 262 263 264 267 269 269 269 269 268 272 278 284 290 296 298 297 299 300 299 299 301 303 304 307 309 309 310 310 311 316 316 311 311 317 321 319 318 322 325 324 325 326 326 326 325 324 325 325 325 326
200 202 199 197 212 224 213 212 225 226 226 228 223 222 229 235 237 234 234 234 236 240 244 245 245 246 249 252 250 248 248 250 256 261 262 260 260 263 268 269 267 268 268 268 273 278 282 287 294 298 302 305 304 299 298 302 304 303 304 304 305 309 310 309 310 308 308 311 314 315 313 315 319 319 316 320 324 326 327 328 327 326 324 322 322
202 205 204 203 210 219 214 209 220 227 227 227 226 223 223 231 236 236 238 241 242 243 244 246 249 249 249 251 251 248 247 248 250 254 257 258 260 263 264 263 264 268 271 275 280 283 285 289 294 300 303 302 300 300 301 302 304 305 307 310 312 314 312 311 312 313 313 310 308 311 314 314 314 312 311 317 322 322 322 325 328 328 327 325 324
206 207 207 207 210 217 218 213 216 226 227 224 229 231 226 227 230 232 236 241 241 244 246 244 246 248 248 250 251 249 247 247 248 250 257 265 267 267 268 270 272 274 274 278 281 283 285 289 294 297 297 296 298 300 302 303 305 309 312 314 314 312 312 314 316 314 312 311 312 317 320 314 309 309 312 316 316 314 316 321 327 328 326 324 325
211 211 210 211 211 216 222 219 214 224 232 230 233 239 235 230 230 230 234 237 239 242 246 245 246 249 249 248 248 249 248 247 245 244 246 253 256 257 263 266 266 270 276 279 280 281 283 287 290 293 294 297 300 301 303 306 307 308 310 310 309 309 312 312 311 309 310 313 315 315 314 312 312 313 313 312 310 310 314 319 322 322 318 316 317
213 215 215 214 215 217 221 222 217 220 231 233 233 238 238 235 237 238 237 239 241 242 244 246 249 249 250 251 250 248 246 243 245 248 246 246 249 250 253 258 263 270 276 278 279 282 286 288 290 293 295 298 301 303 304 305 304 305 308 307 305 307 308 307 307 309 312 312 312 310 311 316 317 315 313 313 312 311 312 314 316 315 311 307 307
213 215 216 214 217 219 221 225 224 220 227 233 235 237 237 239 241 239 238 242 244 241 241 245 250 252 254 257 256 253 251 251 258 266 266 262 262 262 263 266 269 272 273 274 276 279 283 286 289 294 296 296 299 302 301 302 305 307 307 306 304 305 307 308 310 313 314 312 310 309 311 315 317 316 316 318 315 312 313 313 310 305 301 299 300
212 213 214 214 216 219 221 225 227 224 228 235 239 240 239 245 249 242 238 247 252 249 249 250 253 257 259 260 260 259 258 258 264 270 270 268 270 274 278 281 282 282 283 283 282 282 281 282 285 288 289 291 295 298 299 302 304 302 301 301 303 306 309 311 311 313 315 315 311 309 310 314 316 314 315 317 316 313 312 310 305 300 299 299 301
211 212 213 216 215 216 221 226 230 233 235 236 239 240 241 246 250 246 241 248 258 262 261 258 258 259 259 261 263 262 261 264 270 272 268 266 268 274 280 285 288 291 293 293 293 293 291 289 288 288 289 291 293 295 298 300 298 297 298 301 304 308 310 310 309 310 312 312 309 308 309 314 318 315 314 315 314 311 308 307 307 305 303 304 304
215 214 214 218 220 220 221 223 229 235 237 238 238 239 242 247 251 250 247 247 253 261 263 262 262 260 257 260 264 263 264 269 272 270 264 264 268 273 276 279 284 288 290 292 294 295 295 293 291 290 290 291 292 295 297 298 298 299 302 305 308 309 309 308 308 308 310 311 311 310 310 315 320 317 312 312 312 312 311 311 311 308 303 302 303
223 220 216 215 219 222 219 216 226 233 233 235 238 239 243 250 252 253 251 250 252 258 260 262 264 263 261 261 261 263 264 262 257 253 252 257 265 273 278 280 282 285 286 288 291 292 293 292 290 290 291 292 295 298 299 300 302 303 305 307 308 308 306 307 309 309 311 314 313 308 308 312 316 312 309 311 314 315 312 311 311 311 309 309 310
226 225 222 215 214 221 217 208 220 232 231 230 236 240 244 250 253 251 251 251 252 256 261 266 262 258 256 256 256 259 259 255 253 255 257 259 264 271 276 279 281 283 285 289 292 293 291 290 291 293 294 293 293 291 290 291 292 293 296 299 302 304 306 308 310 309 310 312 308 303 303 304 306 306 305 308 313 314 312 312 315 317 317 316 314
226 224 222 215 209 209 202 198 213 229 232 232 236 241 244 248 249 248 249 250 249 248 253 257 250 242 242 247 250 252 253 253 255 259 261 264 268 272 273 274 276 279 279 279 280 280 279 280 283 283 281 280 279 278 279 282 284 288 292 295 298 303 304 303 302 301 300 299 298 297 298 299 303 305 305 307 310 310 311 315 318 318 314 311 310
232 227 219 209 204 199 190 194 211 225 231 233 236 240 244 247 246 245 246 247 246 243 242 246 249 251 256 256 252 255 258 259 259 260 261 264 267 270 272 272 272 274 275 273 271 270 269 270 273 274 276 279 282 283 284 287 289 293 294 295 297 300 298 294 295 296 295 294 293 293 294 298 304 306 304 305 307 308 311 316 318 315 309 308 311
234 233 223 207 201 202 197 200 214 226 233 237 241 243 245 248 248 247 246 247 248 247 247 249 252 257 262 260 256 262 267 267 264 262 263 266 269 271 274 274 274 275 277 276 273 272 270 269 270 274 280 286 291 294 296 295 295 294 294 295 298 298 295 295 297 298 296 295 296 297 297 299 303 304 304 307 309 309 313 316 316 314 312 312 315
226 229 226 211 201 203 206 211 221 229 233 237 244 247 250 252 253 251 248 248 249 252 254 256 253 250 255 260 259 263 269 269 268 268 268 270 273 275 277 278 276 275 275 275 276 279 281 280 279 282 286 290 295 299 299 296 294 294 294 295 298 299 296 296 297 297 297 298 300 301 301 301 300 303 308 313 313 312 312 314 313 312 313 313 315